Date,TemperatureHighF,TemperatureAvgF,TemperatureLowF,DewpointHighF,DewpointAvgF,DewpointLowF,HumidityHigh,HumidityAvg,HumidityLow,PressureMaxIn,PressureMinIn,WindSpeedMaxMPH,WindSpeedAvgMPH,GustSpeedMaxMPH,PrecipitationSumIn
2013-1-2,56,56,56,55,55,54,97,96,96,30.00,30.00,0,0,0,0.00
2013-1-3,61,60,60,58,58,57,93,90,87,30.15,30.11,0,0,2,0.00
2013-1-4,50,50,50,48,48,48,95,95,95,30.24,30.23,0,0,0,0.00
2013-1-5,62,55,42,54,50,41,97,83,74,30.34,30.25,2,0,5,0.00
2013-1-7,51,51,51,50,50,50,96,95,95,30.19,30.18,0,0,0,0.00
2013-1-8,59,59,59,58,58,58,94,94,94,30.20,30.20,0,0,0,0.00
2013-1-9,72,68,62,69,66,61,96,92,87,30.33,30.28,2,0,8,0.01
2013-1-11,62,62,61,61,61,60,97,96,96,30.25,30.22,0,0,0,0.00
2013-1-12,78,71,60,69,65,59,96,83,65,30.21,30.12,2,1,4,0.00
2013-1-15,79,75,69,68,68,66,95,79,65,30.16,30.09,1,1,4,0.00
2013-1-16,63,63,63,62,62,62,96,96,96,30.05,30.04,0,0,0,0.00
2013-1-23,39,38,38,36,35,35,90,89,88,30.32,30.31,0,0,0,0.00
2013-1-24,42,42,42,41,41,41,95,95,95,30.26,30.24,0,0,0,0.00
2013-1-25,73,65,55,60,54,46,95,72,39,30.32,30.19,2,0,4,0.00
2013-1-26,58,56,56,56,55,54,96,95,95,30.24,30.23,0,0,2,0.00
2013-1-27,58,57,57,56,56,55,96,96,95,30.29,30.28,0,0,0,0.00
2013-1-28,74,64,55,66,60,54,97,87,73,30.37,30.30,3,1,7,0.00
2013-1-29,75,74,72,67,67,66,82,80,78,30.25,30.24,3,1,11,0.00
2013-1-31,59,55,48,42,35,29,78,49,33,30.15,30.08,2,1,5,0.08
2013-2-1,66,51,36,38,35,32,92,60,29,30.32,30.24,6,0,6,0.00
2013-2-2,62,52,37,45,40,34,90,66,45,30.35,30.18,8,1,8,0.00
2013-2-3,65,54,39,46,39,29,96,64,28,30.19,30.04,6,0,6,0.00
2013-2-4,58,46,39,48,42,38,96,88,66,30.14,30.10,1,0,3,0.00
2013-2-5,68,58,44,50,45,40,96,66,36,30.11,30.01,1,0,3,0.00
2013-2-6,68,62,57,58,56,53,90,81,66,30.16,30.05,2,0,3,0.00
2013-2-7,76,71,67,66,64,63,94,81,69,30.05,29.80,3,1,4,0.17
2013-2-8,69,64,57,60,56,54,91,76,63,30.02,29.87,2,1,3,0.00
2013-2-9,66,61,50,55,51,46,96,70,57,30.25,30.19,3,1,6,0.00
2013-2-10,72,67,58,60,56,53,84,70,59,30.31,30.20,4,1,13,0.00
2013-2-11,80,69,61,65,62,58,91,79,57,30.18,30.12,2,1,7,0.00
2013-2-12,78,68,63,68,65,61,96,90,66,30.08,29.97,2,0,7,0.00
2013-2-13,76,72,69,73,69,66,96,90,78,29.87,29.78,8,1,8,0.62
2013-2-14,57,54,51,53,51,49,95,90,81,30.09,29.93,3,0,3,0.12
2013-2-15,64,55,43,52,48,42,96,79,60,30.10,30.00,2,0,4,0.00
2013-2-16,60,52,45,49,46,40,96,80,56,29.95,29.91,2,0,3,0.00
2013-2-17,52,44,32,25,19,10,74,41,19,30.32,30.22,2,1,5,0.00
2013-2-18,60,43,29,39,33,27,95,72,43,30.42,30.35,8,1,8,0.00
2013-2-19,77,66,46,58,52,45,96,65,44,30.18,30.01,13,1,13,0.00
2013-2-20,60,54,48,53,40,33,90,60,40,30.18,30.07,10,0,10,0.00
2013-2-21,66,56,42,54,48,41,96,77,54,30.16,30.05,8,0,8,0.00
2013-2-22,80,72,60,69,66,59,96,82,65,30.09,30.00,12,1,12,0.00
2013-2-23,83,73,62,69,64,-100,96,77,56,29.96,29.83,7,-10,14,0.16
2013-2-24,71,64,58,64,59,48,97,86,52,30.00,29.85,5,0,7,0.11
2013-2-25,67,62,58,66,59,-100,97,94,89,29.95,29.81,7,-18,1,3.61
2013-2-26,77,69,60,71,65,54,97,87,49,29.81,29.67,14,1,14,0.72
2013-2-27,68,61,54,56,50,44,87,69,45,29.97,29.81,6,0,6,0.00
2013-2-28,70,60,47,49,45,36,93,61,40,29.98,29.83,10,0,10,0.00
2013-3-1,60,54,49,42,38,35,67,55,45,30.00,29.89,4,0,4,0.00
2013-3-2,57,46,38,40,35,30,92,67,37,30.02,29.90,7,0,1,0.00
2013-3-3,47,41,33,33,31,29,89,67,51,30.13,29.98,4,1,4,0.00
2013-3-4,60,44,31,43,33,24,95,71,28,30.22,30.11,3,0,3,0.00
2013-3-5,74,57,40,57,45,38,95,70,30,30.18,29.89,8,1,0,0.00
2013-3-6,64,54,45,60,38,28,92,57,32,30.13,29.85,9,2,9,0.05
2013-3-7,58,48,38,46,39,32,95,72,58,30.24,30.13,9,0,9,0.00
2013-3-8,64,52,40,51,45,39,96,78,48,30.24,30.16,11,1,11,0.00
2013-3-9,68,55,42,52,47,42,96,77,51,30.28,30.17,8,1,8,0.00
2013-3-10,73,64,50,61,56,48,96,77,57,30.22,30.13,7,1,11,0.00
2013-3-11,75,65,53,62,57,52,96,78,57,30.15,29.91,13,1,13,0.00
2013-3-12,71,66,55,68,62,48,95,88,65,30.01,29.84,7,0,7,0.07
2013-3-13,69,58,48,48,40,32,91,54,27,30.18,30.01,8,0,7,0.00
2013-3-14,56,50,40,40,34,29,94,56,44,30.31,30.16,13,1,13,0.00
2013-3-15,66,52,37,48,40,28,96,68,31,30.28,30.12,7,0,7,0.00
2013-3-16,78,60,44,55,48,43,96,67,31,30.16,29.98,6,0,6,0.00
2013-3-17,78,61,47,59,50,44,93,71,34,30.13,29.99,5,0,6,0.01
2013-3-18,80,68,60,66,62,58,96,82,54,30.06,29.86,3,0,4,0.01
2013-3-19,81,69,60,66,61,58,96,79,52,30.02,29.89,5,0,6,0.07
2013-3-20,65,60,51,59,56,50,96,86,72,30.02,29.86,5,0,6,0.14
2013-3-21,66,53,41,49,40,30,96,68,26,29.96,29.84,4,0,3,0.01
2013-3-22,65,54,44,52,44,38,90,71,45,30.06,29.93,5,0,2,0.00
2013-3-23,70,63,55,66,61,52,96,94,84,30.00,29.80,4,0,4,2.46
2013-3-24,82,70,63,73,67,62,97,91,63,29.82,29.52,7,1,7,0.51
2013-3-25,68,59,48,63,41,27,88,54,25,30.03,29.61,6,1,4,0.00
2013-3-26,56,47,41,35,29,25,80,52,35,30.25,30.03,6,0,3,0.00
2013-3-27,58,46,36,41,34,30,94,66,37,30.30,30.21,4,0,1,0.00
2013-3-28,66,50,37,45,40,34,96,73,30,30.30,30.21,4,0,8,0.00
2013-3-29,70,52,41,52,43,35,96,76,29,30.33,30.21,7,0,0,0.00
2013-3-30,77,57,44,56,48,43,96,75,31,30.26,30.10,6,0,0,0.00
2013-3-31,82,65,51,61,53,47,92,67,38,30.14,29.95,5,0,0,0.00
2013-4-1,82,66,59,70,62,55,96,86,55,30.00,29.89,5,0,1,0.43
2013-4-2,74,65,54,62,56,50,97,75,47,30.13,29.98,7,1,9,0.01
2013-4-3,76,64,54,66,60,53,97,88,60,30.10,30.03,8,1,8,0.37
2013-4-4,76,69,65,72,66,64,97,92,75,30.07,29.86,5,0,6,0.75
2013-4-5,66,60,55,65,59,53,97,95,92,30.03,29.81,5,0,8,0.21
2013-4-6,68,60,53,59,55,51,96,86,71,30.18,30.02,6,1,1,0.00
2013-4-7,75,64,58,64,59,57,97,85,61,30.20,30.09,5,0,0,0.00
2013-4-8,78,65,55,66,60,55,97,87,65,30.18,30.09,7,0,0,0.00
2013-4-9,78,68,60,69,63,59,97,87,67,30.21,30.09,8,1,0,0.00
2013-4-10,80,70,60,70,65,59,97,86,70,30.16,30.01,5,0,0,0.00
2013-4-11,80,73,69,73,70,68,97,90,75,30.01,29.82,6,1,1,0.02
2013-4-12,85,76,70,75,70,66,97,84,60,29.88,29.76,7,1,5,0.01
2013-4-13,75,68,60,68,57,46,93,69,38,30.02,29.87,5,0,0,0.00
2013-4-14,75,64,57,67,62,56,98,92,70,30.02,29.89,5,0,0,0.15
2013-4-15,83,69,62,71,66,62,98,89,55,30.12,29.81,7,0,0,0.01
2013-4-16,78,70,64,70,67,63,98,91,74,30.20,30.10,6,1,3,0.00
2013-4-17,76,70,65,71,67,64,98,92,81,30.18,30.10,6,0,0,0.00
2013-4-18,81,72,64,72,68,63,98,88,67,30.10,29.98,8,0,0,0.00
2013-4-19,87,77,71,74,72,69,97,85,59,30.01,29.87,5,1,6,0.16
2013-4-20,72,56,52,70,54,50,97,94,82,30.20,29.98,3,0,3,0.36
2013-4-21,68,64,60,65,60,55,96,86,78,30.20,30.09,9,1,9,0.07
2013-4-22,66,64,61,65,62,58,97,93,83,30.14,30.05,13,1,14,0.05
2013-4-23,70,64,55,61,58,54,96,82,69,30.17,30.06,5,0,9,0.00
2013-4-24,79,65,53,68,60,52,98,84,60,30.16,30.10,5,0,0,0.00
2013-4-25,83,70,59,69,64,59,98,84,56,30.21,30.10,4,0,0,0.00
2013-4-26,78,68,62,70,64,60,97,87,70,30.30,30.16,8,1,0,0.00
2013-4-27,79,69,62,68,64,61,98,86,55,30.27,30.16,6,0,6,0.00
2013-4-28,79,72,66,68,66,64,97,82,63,30.17,30.01,8,1,0,0.00
2013-4-29,82,70,65,70,66,64,97,87,58,30.03,29.92,2,0,0,0.91
2013-4-30,81,68,63,72,66,62,98,92,68,30.04,29.94,7,0,0,0.01
2013-5-1,76,69,64,71,67,63,98,92,83,30.07,29.98,7,1,10,0.00
2013-5-2,70,68,67,69,68,66,98,97,92,30.03,29.91,10,1,10,6.45
2013-5-3,70,67,66,67,66,64,98,94,80,29.92,29.83,16,2,16,2.57
2013-5-4,70,68,66,70,66,62,98,93,79,29.84,29.70,15,2,15,0.71
2013-5-5,77,67,61,70,61,52,98,81,44,29.89,29.72,2,0,2,0.48
2013-5-6,73,64,56,58,53,48,96,71,42,29.98,29.86,4,0,0,0.00
2013-5-7,77,65,54,62,57,53,96,78,58,30.02,29.90,5,0,0,0.00
2013-5-8,80,68,57,66,61,56,98,80,50,30.10,30.00,2,0,0,0.00
2013-5-9,82,70,61,70,64,60,98,80,52,30.13,30.07,6,0,0,0.00
2013-5-10,84,73,61,71,66,60,98,81,52,30.13,30.00,7,0,0,0.00
2013-5-11,88,74,68,73,69,66,97,85,57,30.05,29.91,2,0,0,0.01
2013-5-12,85,74,67,71,67,64,98,81,55,30.02,29.92,4,0,2,0.00
2013-5-13,78,68,58,64,54,43,94,65,28,30.14,29.99,4,0,1,0.00
2013-5-14,76,62,51,58,52,48,96,74,37,30.24,30.15,5,0,0,0.00
2013-5-15,82,68,55,66,57,51,98,74,37,30.23,30.08,7,0,0,0.00
2013-5-16,83,71,61,69,64,59,96,81,56,30.13,30.04,6,0,0,0.00
2013-5-17,84,72,62,70,66,61,98,82,54,30.12,30.04,7,0,5,0.00
2013-5-18,83,74,66,73,70,65,98,87,64,30.14,30.03,12,1,0,0.51
2013-5-19,83,74,68,74,71,68,98,89,73,30.10,30.01,6,1,4,0.02
2013-5-20,80,73,69,75,71,68,98,94,81,30.10,30.01,6,0,1,0.89
2013-5-21,82,74,69,75,71,68,99,90,74,30.06,29.96,8,0,0,0.00
2013-5-22,81,73,67,75,71,67,99,92,74,30.01,29.92,7,0,1,0.69
2013-5-23,87,76,69,74,71,68,99,86,60,29.98,29.90,4,0,0,0.00
2013-5-24,89,77,69,72,67,57,98,74,37,30.10,29.94,4,0,0,0.00
2013-5-25,80,72,62,67,60,54,97,68,42,30.25,30.10,7,1,5,0.00
2013-5-26,82,67,58,68,59,52,98,79,39,30.24,30.15,4,0,2,0.00
2013-5-27,82,73,59,70,65,58,98,76,61,30.22,30.14,4,0,6,0.00
2013-5-28,82,75,70,71,67,64,88,76,65,30.19,30.13,7,1,4,0.00
2013-5-29,83,78,74,76,73,69,93,84,74,30.18,30.10,7,1,6,0.07
2013-5-30,84,78,73,76,74,72,97,86,74,30.18,30.10,7,1,9,0.14
2013-5-31,84,77,73,75,72,71,97,87,72,30.16,30.09,7,1,4,0.01
2013-6-1,84,78,75,75,73,71,90,83,71,30.11,30.03,10,1,4,0.00
2013-6-2,84,78,74,77,75,72,97,90,78,30.06,29.90,6,1,5,0.00
2013-6-3,91,79,72,80,75,71,98,88,60,29.96,29.86,4,0,4,1.47
2013-6-4,85,75,72,78,74,71,99,96,76,30.02,29.93,1,0,1,0.17
2013-6-5,80,74,72,78,73,71,98,97,90,30.03,29.94,1,0,1,0.46
2013-6-6,77,74,72,76,74,71,99,97,88,29.95,29.58,9,1,7,1.54
2013-6-7,89,78,72,78,73,70,98,85,67,29.92,29.60,5,1,0,0.07
2013-6-8,91,79,72,79,74,71,98,87,60,30.07,29.92,4,0,0,0.00
2013-6-9,85,78,72,77,74,71,98,89,74,30.12,30.04,6,0,0,0.02
2013-6-10,88,80,74,78,75,74,98,87,66,30.10,30.00,5,0,0,0.00
2013-6-11,92,80,73,79,75,72,98,86,58,30.08,29.98,4,0,0,0.13
2013-6-12,94,82,72,81,75,71,99,83,56,30.06,29.95,1,0,0,0.00
2013-6-15,85,80,77,73,71,69,81,73,64,30.09,29.99,7,1,6,0.00
2013-6-16,85,79,73,75,72,70,93,79,67,30.13,30.05,9,1,9,0.00
2013-6-17,88,80,76,80,76,74,97,88,74,30.08,29.96,3,0,0,0.10
2013-6-18,91,79,72,79,74,71,99,87,59,30.03,29.90,4,0,1,0.00
2013-6-19,93,82,73,79,75,71,98,82,52,30.02,29.92,3,0,4,0.00
2013-6-20,86,77,72,79,74,71,98,93,73,30.09,29.98,5,0,3,0.45
2013-6-21,85,78,73,78,74,72,99,89,74,30.13,30.05,4,0,4,0.00
2013-6-22,85,78,73,79,75,72,98,91,74,30.13,30.07,4,0,4,0.12
2013-6-23,87,78,72,78,75,71,99,89,69,30.16,30.08,6,0,0,0.00
2013-6-24,87,80,73,79,75,72,99,87,69,30.20,30.10,7,0,6,0.00
2013-6-25,88,79,73,79,75,72,98,88,66,30.17,30.05,4,0,0,0.00
2013-6-26,91,78,73,80,75,71,99,89,59,30.09,30.00,5,0,0,0.00
2013-6-27,92,77,71,80,74,70,98,91,62,30.02,29.89,4,0,8,0.75
2013-6-28,92,79,75,80,76,73,99,90,60,29.93,29.78,4,0,3,0.00
2013-6-29,87,80,76,78,75,73,96,87,68,29.82,29.74,5,0,3,0.00
2013-6-30,88,77,74,80,74,72,97,93,69,29.86,29.77,3,0,2,0.73
2013-7-1,84,76,72,78,74,71,99,93,80,30.02,29.83,5,0,4,2.18
2013-7-2,85,76,72,79,74,72,99,95,80,30.11,29.99,4,0,7,0.42
2013-7-3,86,77,72,79,75,72,99,94,77,30.14,30.07,5,0,1,0.00
2013-7-4,85,79,74,78,75,72,96,88,78,30.17,30.10,9,1,7,0.00
2013-7-5,86,78,72,79,75,71,99,91,76,30.18,30.11,8,1,1,0.00
2013-7-6,86,78,74,79,75,74,98,91,75,30.15,30.08,9,1,3,0.00
2013-7-7,86,79,73,78,76,73,99,89,74,30.16,30.09,7,0,4,0.00
2013-7-8,87,78,73,79,75,73,99,92,72,30.19,30.11,4,0,1,0.00
2013-7-9,86,78,73,79,74,73,99,90,68,30.18,30.09,6,0,0,0.00
2013-7-10,87,79,71,78,74,70,99,87,68,30.10,29.97,6,0,5,0.00
2013-7-11,89,81,74,78,75,72,97,83,61,30.02,29.89,4,1,5,0.00
2013-7-12,89,76,72,80,74,71,98,93,66,29.93,29.87,4,0,0,0.33
2013-7-13,86,77,72,80,75,71,99,93,76,30.00,29.90,3,0,3,0.24
2013-7-14,84,76,72,76,74,71,99,94,72,30.13,29.98,5,0,4,0.01
2013-7-15,86,77,73,79,75,72,99,93,78,30.17,30.10,7,0,4,0.10
2013-7-16,87,80,76,80,77,75,97,89,75,30.21,30.13,7,1,5,0.00
2013-7-17,87,81,75,79,77,74,98,87,73,30.21,30.10,9,1,5,0.00
2013-7-18,87,80,72,78,75,72,99,85,67,30.14,30.05,4,0,4,0.00
2013-7-19,89,79,73,78,74,71,98,85,66,30.13,30.03,4,0,3,0.00
2013-7-20,90,76,72,79,73,71,98,91,67,30.10,30.01,4,0,2,0.30
2013-7-21,91,79,72,80,75,71,99,90,61,30.10,30.01,2,0,3,0.14
2013-7-22,92,79,74,80,76,72,99,90,62,30.12,30.01,5,0,5,0.70
2013-7-23,90,79,73,81,76,72,99,90,70,30.03,29.92,4,0,3,0.04
2013-7-24,86,78,73,78,75,72,98,91,76,29.92,29.80,4,0,3,0.13
2013-7-25,90,80,72,80,75,72,98,86,64,29.94,29.82,1,0,3,0.00
2013-7-26,88,81,74,80,77,73,99,88,73,30.01,29.92,4,0,0,0.00
2013-7-27,89,80,74,80,76,72,99,89,69,30.00,29.87,4,0,2,0.00
2013-7-28,87,79,73,80,76,72,99,91,77,30.04,29.91,2,0,4,0.03
2013-7-29,89,82,72,80,76,71,99,83,67,30.14,30.02,5,0,6,0.00
2013-7-30,91,83,75,81,78,74,98,84,70,30.17,30.08,5,0,4,0.00
2013-7-31,88,79,73,80,76,72,99,93,74,30.12,30.03,2,0,2,0.56
2013-8-1,89,75,71,81,74,71,99,96,73,30.04,29.95,4,0,1,0.22
2013-8-2,91,80,71,82,76,71,99,87,64,30.03,29.94,6,0,5,0.00
2013-8-3,92,81,74,81,77,73,99,88,66,30.04,29.97,2,0,3,0.00
2013-8-4,94,82,76,81,78,75,98,87,58,30.04,29.92,2,0,1,0.00
2013-8-5,90,81,78,81,78,77,99,91,71,29.98,29.90,4,0,0,0.00
2013-8-6,88,83,78,81,79,77,98,88,74,30.00,29.90,6,1,5,0.00
2013-8-7,88,83,79,80,78,76,94,85,72,30.01,29.94,13,1,4,0.00
2013-8-8,89,82,76,80,78,76,99,88,68,30.06,29.96,6,1,5,0.00
2013-8-9,90,83,78,81,78,76,97,84,68,30.09,29.98,5,0,5,0.00
2013-8-10,90,82,74,80,77,74,99,85,67,30.14,30.06,6,0,5,0.00
2013-8-11,90,81,75,81,77,75,98,89,61,30.16,30.07,4,0,1,0.00
2013-8-12,93,84,76,82,78,74,98,82,64,30.12,29.98,5,0,4,0.00
2013-8-13,94,81,75,82,76,74,97,87,59,30.03,29.89,2,0,2,0.00
2013-8-14,94,82,75,81,77,70,98,84,57,29.98,29.86,6,0,3,0.00
2013-8-15,91,80,74,79,76,72,98,86,62,30.03,29.91,6,0,0,0.31
2013-8-16,88,76,72,80,74,72,99,94,69,30.06,29.95,2,0,0,1.04
2013-8-17,84,78,73,79,76,72,99,96,79,30.10,30.00,4,0,3,0.54
2013-8-18,89,81,75,82,78,75,99,90,73,30.13,30.05,5,0,5,0.01
2013-8-19,89,82,76,83,78,75,99,90,71,30.10,29.98,5,0,6,0.17
2013-8-20,89,81,75,81,77,75,99,89,71,30.12,30.01,7,1,4,0.00
2013-8-21,88,81,77,80,78,74,98,90,73,30.17,30.06,6,0,5,0.05
2013-8-22,84,77,73,81,75,71,99,96,83,30.17,30.02,4,0,8,2.02
2013-8-23,85,77,74,81,76,74,99,97,81,30.05,29.99,3,0,0,0.29
2013-8-24,83,78,74,79,76,74,100,95,85,30.13,30.01,4,0,4,0.01
2013-8-25,84,78,74,78,75,73,99,92,80,30.19,30.11,9,1,5,0.03
2013-8-26,86,80,77,78,75,73,93,86,72,30.18,30.07,6,1,4,0.00
2013-8-27,87,79,73,76,73,71,97,82,65,30.10,30.01,5,0,0,0.00
2013-8-28,87,78,70,76,72,69,99,82,58,30.07,29.97,4,0,4,0.00
2013-8-29,92,81,71,79,73,69,98,80,49,30.02,29.89,2,0,2,0.00
2013-8-30,94,82,74,82,76,72,97,83,53,29.97,29.84,3,0,2,0.00
2013-8-31,90,80,73,81,76,73,98,88,67,29.95,29.86,4,0,0,0.00
2013-9-1,92,78,73,79,74,72,99,90,57,29.97,29.86,5,0,0,0.41
2013-9-2,93,80,72,80,75,72,99,88,58,29.99,29.87,4,0,2,0.07
2013-9-3,92,78,74,81,76,73,99,92,66,29.98,29.88,1,0,0,0.01
2013-9-4,92,81,74,81,76,72,98,86,60,30.07,29.96,6,0,3,0.00
2013-9-5,92,81,74,80,76,73,99,87,67,30.09,29.98,4,0,0,0.00
2013-9-6,89,77,73,80,74,72,98,91,69,30.05,29.98,5,0,1,0.00
2013-9-7,87,79,71,77,73,70,99,83,66,30.04,29.95,7,1,7,0.00
2013-9-8,87,78,69,75,71,69,99,81,60,29.98,29.91,7,1,0,0.00
2013-9-9,87,76,69,78,71,68,99,86,64,30.06,29.96,7,0,3,0.00
2013-9-10,88,81,74,75,73,71,94,77,62,30.14,30.03,8,1,6,0.00
2013-9-11,87,77,72,78,74,70,97,89,66,30.12,30.03,5,0,0,0.47
2013-9-12,86,76,72,81,74,71,99,93,71,30.05,29.90,6,0,2,0.13
2013-9-13,94,81,71,80,74,69,99,81,47,29.91,29.77,3,0,2,0.00
2013-9-14,91,78,72,79,74,71,98,88,65,29.99,29.81,3,0,1,0.00
2013-9-15,88,78,73,81,75,72,99,90,70,30.08,29.97,7,0,1,0.02
2013-9-16,88,81,73,79,76,72,98,86,66,30.09,30.00,4,0,0,0.00
2013-9-17,87,78,73,79,75,72,99,90,74,30.10,30.00,10,1,2,0.02
2013-9-18,80,76,73,76,73,71,98,91,79,30.10,30.02,9,1,2,0.01
2013-9-19,85,76,72,77,72,70,98,87,73,30.08,30.01,7,0,2,0.42
2013-9-20,84,76,69,75,71,68,99,85,66,30.04,29.92,6,0,0,0.00
2013-9-21,87,77,68,77,72,67,99,85,65,29.95,29.75,6,0,0,0.00
2013-9-22,81,76,72,78,74,71,99,92,85,29.84,29.73,4,0,2,0.53
2013-9-23,80,75,72,78,74,72,99,97,89,29.96,29.83,0,0,0,0.05
2013-9-24,80,75,73,77,74,72,99,98,88,29.95,29.81,0,0,0,0.67
2013-9-25,82,77,74,78,75,73,100,94,82,29.81,29.73,4,0,2,0.00
2013-9-26,78,75,73,77,74,72,100,95,85,29.84,29.73,1,0,7,0.04
2013-9-27,74,73,71,70,70,69,96,90,84,29.90,29.87,1,0,2,0.00
2013-9-28,73,72,72,71,71,71,97,96,96,29.99,29.98,1,0,2,0.00
2013-9-29,75,74,74,70,70,69,88,86,84,29.99,29.98,2,0,0,0.72
2013-9-30,81,76,71,72,69,66,95,81,66,30.04,29.93,7,1,6,0.00
2013-10-1,80,73,68,71,67,66,96,83,67,30.10,30.01,5,0,0,0.00
2013-10-2,82,71,63,71,67,63,99,88,69,30.10,30.04,5,0,0,0.00
2013-10-3,84,75,68,76,72,68,99,92,77,30.10,30.02,5,0,7,0.00
2013-10-4,86,77,70,77,74,69,99,91,71,30.10,30.03,7,0,0,0.00
2013-10-5,84,76,70,77,74,70,99,91,79,30.07,30.00,8,1,0,0.00
2013-10-6,85,77,73,79,75,73,99,94,77,30.01,29.87,6,0,5,0.45
2013-10-7,88,78,72,79,75,72,100,91,66,29.87,29.75,4,0,3,1.78
2013-10-8,79,73,70,76,72,68,100,97,88,29.99,29.77,4,0,4,0.62
2013-10-9,70,64,62,68,64,62,99,98,91,30.09,29.98,4,0,2,0.08
2013-10-10,80,68,62,72,65,62,100,91,66,30.07,29.97,5,0,0,0.00
2013-10-11,83,72,62,72,66,62,100,83,53,30.06,29.93,1,0,1,0.00
2013-10-12,84,70,63,72,65,62,99,86,48,30.04,29.96,2,0,0,0.00
2013-10-13,85,70,62,71,66,62,100,86,47,30.09,30.00,5,0,0,0.01
2013-10-14,76,70,66,72,69,65,98,94,85,30.07,29.99,2,0,6,0.34
2013-10-15,74,72,69,72,71,68,100,96,91,30.00,29.93,8,1,9,0.73
2013-10-16,81,74,68,74,71,67,97,89,76,29.99,29.92,6,0,4,0.00
2013-10-17,84,71,66,76,69,66,100,94,73,29.99,29.89,4,0,0,0.00
2013-10-18,88,76,68,77,72,68,100,90,63,29.99,29.89,4,0,0,0.00
2013-10-19,88,77,71,78,74,71,99,92,65,29.95,29.86,4,0,1,0.12
2013-10-20,77,72,68,73,68,66,99,90,72,30.00,29.88,5,0,1,0.00
2013-10-21,81,74,68,76,73,68,99,94,81,30.03,29.95,5,0,4,0.00
2013-10-22,78,75,72,76,74,71,100,97,90,29.97,29.81,2,0,3,2.46
2013-10-23,75,66,55,72,63,53,100,91,56,30.02,29.80,1,0,1,0.02
2013-10-24,71,60,54,60,53,47,98,78,61,30.18,30.02,4,0,5,0.00
2013-10-25,73,59,52,60,55,52,100,86,58,30.26,30.16,4,0,2,0.01
2013-10-26,72,60,52,61,54,50,97,82,62,30.25,30.12,2,0,2,0.00
2013-10-27,72,58,50,57,53,49,99,84,45,30.15,30.09,2,0,0,0.00
2013-10-28,76,62,53,66,59,52,100,89,67,30.23,30.11,4,0,3,0.00
2013-10-29,77,67,58,68,63,58,100,89,73,30.29,30.18,8,1,10,0.00
2013-10-30,79,69,63,71,66,62,99,89,73,30.27,30.16,8,0,0,0.00
2013-10-31,82,72,65,73,69,65,99,89,66,30.15,29.99,7,0,0,0.00
2013-11-1,82,74,69,74,70,68,97,88,67,30.00,29.81,5,0,1,0.00
2013-11-2,75,68,58,72,67,58,99,97,90,29.96,29.77,2,0,3,0.03
2013-11-3,70,61,52,61,54,49,99,80,50,30.18,29.95,11,0,0,0.00
2013-11-4,78,69,66,66,60,54,89,73,63,30.24,30.16,11,1,14,1.62
2013-11-5,71,69,67,69,67,65,98,92,86,30.22,30.18,9,1,11,0.02
2013-11-6,77,71,66,72,68,65,99,92,78,30.18,30.07,4,0,4,0.01
2013-11-7,78,71,66,70,68,64,98,91,76,30.07,29.97,1,0,3,0.00
2013-11-8,68,62,53,67,56,48,95,79,69,30.20,30.01,5,1,7,0.00
2013-11-9,75,67,64,65,61,57,96,81,62,30.23,30.15,9,0,7,0.00
2013-11-10,75,67,59,68,64,58,99,92,70,30.23,30.13,7,0,4,0.00
2013-11-11,75,65,57,66,62,57,99,90,65,30.20,30.11,4,0,0,0.00
2013-11-12,77,66,59,67,63,53,97,89,71,30.13,30.02,3,0,0,0.00
2013-11-13,61,54,51,52,47,43,87,77,69,30.41,30.13,11,2,12,0.00
2013-11-14,70,60,49,61,55,46,97,84,69,30.37,30.22,6,1,8,0.00
2013-11-15,68,61,56,67,61,55,99,98,92,30.23,30.07,1,0,0,0.09
2013-11-16,76,68,62,70,66,62,100,95,80,30.19,30.09,2,0,7,0.00
2013-11-17,75,70,67,72,69,67,99,97,90,30.11,30.00,2,0,2,0.25
2013-11-18,80,72,67,76,71,67,100,96,85,30.02,29.89,2,0,1,0.36
2013-11-19,71,63,55,71,59,51,99,86,75,30.03,29.90,7,0,5,0.00
2013-11-20,70,67,64,68,65,61,99,93,85,30.18,30.01,6,0,7,0.20
2013-11-21,76,69,65,70,67,65,99,94,81,30.26,30.16,5,0,4,0.00
2013-11-22,76,69,62,70,66,61,100,93,77,30.26,30.13,5,0,4,0.01
2013-11-23,79,67,59,71,64,59,100,93,74,30.14,30.01,4,0,3,0.00
2013-11-24,66,59,54,63,52,45,92,79,67,30.34,30.06,13,1,13,0.00
2013-11-25,72,65,57,62,57,49,85,76,56,30.33,30.11,7,1,9,0.00
2013-11-26,74,69,67,72,68,62,99,94,82,30.10,29.69,6,1,9,0.96
2013-11-27,71,58,41,71,54,35,99,88,76,30.22,29.61,6,1,7,0.23
2013-11-28,57,45,35,48,39,32,94,82,65,30.41,30.22,5,0,4,0.00
2013-11-29,63,54,44,56,51,43,100,89,77,30.44,30.36,6,1,10,0.00
2013-11-30,61,59,56,60,58,54,97,95,90,30.38,30.23,8,1,6,0.00
2013-12-1,67,60,55,62,58,55,98,92,82,30.22,30.00,2,0,3,0.00
2013-12-2,66,57,51,59,55,51,99,93,76,30.00,29.82,4,0,4,0.00
2013-12-3,72,58,49,63,56,49,100,92,69,29.98,29.89,3,0,1,0.00
2013-12-4,78,64,58,69,63,58,99,94,70,30.10,29.96,4,0,0,0.00
2013-12-5,82,68,58,71,64,57,100,90,64,30.18,30.07,5,0,3,0.00
2013-12-6,80,70,62,72,67,62,100,91,75,30.17,30.09,5,0,7,0.00
2013-12-7,81,69,65,72,67,64,100,93,69,30.22,30.13,5,0,1,0.00
2013-12-8,68,65,63,66,64,62,99,98,92,30.27,30.15,2,0,5,0.00
2013-12-9,81,70,61,73,67,60,100,92,71,30.19,30.07,2,0,4,0.00
2013-12-10,80,69,54,71,66,49,99,91,68,30.25,30.03,7,0,4,0.23
2013-12-11,66,58,52,62,55,49,95,89,83,30.29,30.21,5,0,2,0.00
2013-12-12,62,56,52,52,46,37,83,70,41,30.38,30.24,6,0,2,0.00
2013-12-13,64,54,47,59,51,45,98,90,75,30.32,30.14,6,0,1,0.00
2013-12-14,76,66,54,70,64,54,100,94,81,30.14,29.89,5,0,6,0.61
2013-12-15,66,61,48,66,60,46,99,95,84,30.16,29.84,2,0,3,0.71
2013-12-16,55,46,40,49,43,38,98,90,73,30.25,30.14,1,0,0,0.00
2013-12-17,64,50,39,51,43,39,99,83,45,30.29,30.16,1,0,3,0.00
2013-12-18,62,48,40,47,41,29,99,82,30,30.30,30.19,5,0,0,0.00
2013-12-19,66,53,39,59,50,39,100,91,74,30.32,30.21,6,0,4,0.00
2013-12-20,72,56,48,64,54,48,100,94,71,30.22,30.13,2,0,0,0.00
2013-12-21,79,67,56,71,64,56,100,92,73,30.16,30.03,11,1,9,0.00
2013-12-22,82,73,68,73,70,67,99,91,70,30.14,30.05,5,1,7,0.00
2013-12-23,81,71,66,72,69,64,100,93,71,30.15,30.04,5,0,2,0.00
2013-12-24,65,55,44,64,49,38,95,80,44,30.30,30.10,3,0,3,0.00
2013-12-25,64,52,42,58,48,39,97,89,79,30.30,30.23,5,0,5,0.00
2013-12-26,59,56,53,57,53,50,97,91,81,30.28,30.17,2,0,3,0.00
2013-12-27,64,59,55,60,56,54,95,91,84,30.33,30.21,4,0,3,0.00
2013-12-28,69,64,60,67,62,56,98,94,88,30.28,30.00,6,0,3,0.00
2013-12-29,73,70,58,71,68,58,99,94,91,30.00,29.88,6,0,6,0.00
2013-12-30,65,54,48,58,51,48,99,90,58,30.20,30.00,2,0,1,0.00
2013-12-31,64,56,52,53,52,50,98,86,64,30.33,30.19,1,0,3,0.01
2014-1-1,61,57,55,60,56,52,99,95,89,30.31,30.09,2,0,1,1.02
2014-1-2,64,60,54,64,60,50,100,99,84,30.07,29.75,5,0,10,1.42